TimeMST,TemperatureF,Dew PointF,Humidity,Sea Level PressureIn,VisibilityMPH,Wind Direction,Wind SpeedMPH,Gust SpeedMPH,PrecipitationIn,Events,Conditions,WindDirDegrees,DateUTC
12:53 AM,37.9,24.1,57,30.08,10.0,West,20.7,31.1,N/A,,Overcast,260,2013-02-13 07:53:00
1:53 AM,39.9,23.0,51,30.09,10.0,West,12.7,19.6,N/A,,Overcast,260,2013-02-13 08:53:00
2:53 AM,39.0,23.0,53,30.07,10.0,WSW,16.1,23.0,N/A,,Overcast,240,2013-02-13 09:53:00
3:53 AM,39.0,24.1,55,30.05,10.0,West,4.6,-,N/A,,Overcast,260,2013-02-13 10:53:00
4:53 AM,39.0,24.1,55,30.04,10.0,West,8.1,-,N/A,,Overcast,260,2013-02-13 11:53:00
5:53 AM,41.0,24.1,51,30.01,10.0,SW,16.1,20.7,N/A,,Mostly Cloudy,230,2013-02-13 12:53:00
6:53 AM,41.0,24.1,51,30.01,10.0,West,15.0,23.0,N/A,,Overcast,260,2013-02-13 13:53:00
7:53 AM,41.0,24.1,51,29.99,10.0,West,16.1,23.0,N/A,,Overcast,260,2013-02-13 14:53:00
8:53 AM,41.0,23.0,49,30.02,10.0,West,12.7,23.0,N/A,,Overcast,280,2013-02-13 15:53:00
9:53 AM,42.1,23.0,47,30.04,10.0,WNW,18.4,31.1,N/A,,Mostly Cloudy,290,2013-02-13 16:53:00
10:53 AM,43.0,23.0,45,30.05,10.0,WNW,24.2,32.2,N/A,,Mostly Cloudy,300,2013-02-13 17:53:00
11:53 AM,44.1,23.0,43,30.05,10.0,WNW,28.8,47.2,N/A,,Partly Cloudy,300,2013-02-13 18:53:00
12:53 PM,44.1,24.1,45,30.06,10.0,West,21.9,40.3,N/A,,Partly Cloudy,280,2013-02-13 19:53:00
1:53 PM,43.0,21.9,43,30.06,10.0,WNW,21.9,33.4,N/A,,Mostly Cloudy,300,2013-02-13 20:53:00
2:53 PM,42.1,21.0,43,30.07,10.0,WNW,26.5,41.4,N/A,,Mostly Cloudy,300,2013-02-13 21:53:00
3:53 PM,42.1,21.9,45,30.09,10.0,WNW,15.0,26.5,N/A,,Overcast,290,2013-02-13 22:53:00
4:53 PM,39.9,21.0,47,30.11,10.0,WNW,11.5,25.3,N/A,,Mostly Cloudy,290,2013-02-13 23:53:00
5:53 PM,39.0,21.0,49,30.11,10.0,West,21.9,27.6,N/A,,Partly Cloudy,280,2013-02-14 00:53:00
6:53 PM,39.0,19.9,46,30.13,10.0,West,18.4,-,N/A,,Clear,280,2013-02-14 01:53:00
7:53 PM,37.9,19.0,47,30.14,10.0,West,17.3,29.9,N/A,,Clear,280,2013-02-14 02:53:00
8:53 PM,37.9,19.9,48,30.15,10.0,WNW,13.8,24.2,N/A,,Clear,290,2013-02-14 03:53:00
9:53 PM,37.0,19.9,50,30.18,10.0,West,12.7,-,N/A,,Clear,280,2013-02-14 04:53:00
10:53 PM,34.0,21.9,61,30.21,10.0,West,6.9,-,N/A,,Mostly Cloudy,270,2013-02-14 05:53:00
11:53 PM,33.1,23.0,66,30.23,10.0,NW,15.0,-,N/A,,Mostly Cloudy,320,2013-02-14 06:53:00